TimeMDT,TemperatureF,Dew PointF,Humidity,Sea Level PressureIn,VisibilityMPH,Wind Direction,Wind SpeedMPH,Gust SpeedMPH,PrecipitationIn,Events,Conditions,WindDirDegrees,DateUTC
12:51 AM,72.0,36.0,27,29.75,10.0,SSE,11.5,-,N/A,,Clear,160,2012-10-03 06:51:00
1:51 AM,73.9,30.9,21,29.74,10.0,South,9.2,-,N/A,,Clear,190,2012-10-03 07:51:00
2:51 AM,73.9,30.9,21,29.73,10.0,Variable,5.8,-,N/A,,Clear,0,2012-10-03 08:51:00
3:51 AM,66.9,36.0,32,29.75,10.0,ENE,6.9,-,N/A,,Clear,70,2012-10-03 09:51:00
4:51 AM,63.0,39.0,41,29.77,10.0,South,5.8,-,N/A,,Clear,170,2012-10-03 10:51:00
5:51 AM,61.0,39.9,46,29.79,10.0,Variable,4.6,-,N/A,,Clear,0,2012-10-03 11:51:00
6:51 AM,59.0,41.0,51,29.82,10.0,East,5.8,-,N/A,,Partly Cloudy,100,2012-10-03 12:51:00
7:51 AM,62.1,39.9,44,29.84,10.0,Calm,Calm,-,N/A,,Partly Cloudy,0,2012-10-03 13:51:00
8:51 AM,68.0,39.9,36,29.85,10.0,Calm,Calm,-,N/A,,Partly Cloudy,0,2012-10-03 14:51:00
9:51 AM,75.9,36.0,23,29.85,10.0,NE,3.5,-,N/A,,Partly Cloudy,50,2012-10-03 15:51:00
10:51 AM,82.0,32.0,16,29.84,10.0,Calm,Calm,-,N/A,,Partly Cloudy,0,2012-10-03 16:51:00
11:51 AM,84.9,30.0,14,29.84,10.0,West,6.9,-,N/A,,Partly Cloudy,280,2012-10-03 17:51:00
12:51 PM,88.0,30.0,12,29.81,10.0,West,12.7,-,N/A,,Scattered Clouds,270,2012-10-03 18:51:00
1:51 PM,90.0,30.0,12,29.78,10.0,WSW,9.2,-,N/A,,Scattered Clouds,240,2012-10-03 19:51:00
2:51 PM,91.9,26.1,9,29.75,10.0,NW,18.4,23.0,N/A,,Scattered Clouds,320,2012-10-03 20:51:00
3:51 PM,93.0,25.0,9,29.75,10.0,WSW,17.3,24.2,N/A,,Partly Cloudy,240,2012-10-03 21:51:00
4:51 PM,91.9,25.0,9,29.77,10.0,West,15.0,23.0,N/A,,Partly Cloudy,270,2012-10-03 22:51:00
5:51 PM,90.0,25.0,10,29.78,10.0,West,12.7,29.9,N/A,,Clear,280,2012-10-03 23:51:00
6:51 PM,88.0,24.1,10,29.81,10.0,West,20.7,27.6,N/A,,Clear,280,2012-10-04 00:51:00
7:51 PM,86.0,25.0,11,29.83,10.0,West,12.7,26.5,N/A,,Clear,270,2012-10-04 01:51:00
8:51 PM,86.0,24.8,11,30.03,10.0,WNW,15.0,24.2,N/A,,Clear,290,2012-10-04 02:51:00
9:51 PM,84.9,26.1,12,29.81,10.0,West,19.6,25.3,N/A,,Clear,280,2012-10-04 03:51:00
10:51 PM,82.9,27.0,13,29.83,10.0,Variable,4.6,-,N/A,,Clear,0,2012-10-04 04:51:00
11:51 PM,77.0,30.0,18,29.86,10.0,South,6.9,-,N/A,,Clear,180,2012-10-04 05:51:00